Iron Mountain, MI

12:36 AM CST on February 12, 2016 (GMT -0600)
Ford

Weather History for KIMT - June, 2011

Change the Weather History Date:

Saturday, June 4, 2011

  Actual Average Record
Temperature  
Mean Temperature 72 °F -  
Max Temperature 86 °F 73 °F 91 °F (1934)
Min Temperature 57 °F 45 °F 28 °F (1945)
Cooling Degree Days 8    
Growing Degree Days 22 (Base 50)    
Moisture  
Dew Point 48 °F    
Average Humidity 51    
Maximum Humidity 100    
Minimum Humidity 15    
Precipitation  
Precipitation 0.00 in - - ()
Sea Level Pressure  
Sea Level Pressure 29.96 in    
Wind  
Wind Speed 6 mph (NW)    
Max Wind Speed 14 mph    
Max Gust Speed 28 mph    
Visibility 9 miles    
Events      
Averages and records for this station are not official NWS values.
T = Trace of Precipitation, MM = Missing Value Source: NWS Daily Summary

Daily Weather History Graph

Daily Weather History Graph

Search for Another Location

Airport or City:

Trip Planner

Search our weather history database for the weather conditions in past years. The results will help you decide how hot, cold, wet, or windy it might be!

Date:

Astronomy

Jun. 04, 2011 Rise Set
Actual Time 5:04 AM CDT 8:37 PM CDT
Civil Twilight 4:27 AM CDT 9:14 PM CDT
Nautical Twilight 3:37 AM CDT 10:04 PM CDT
Astronomical Twilight 2:32 AM CDT 11:10 PM CDT
Moon 7:37 AM CDT (6/4) 11:01 PM CDT (6/4)
Length of Visible Light 16h 47m
Length of Day
15h 32m
Waxing Crescent, 9% of the Moon is Illuminated
Jun 4
Waxing Crescent
Jun 8
First Quarter
Jun 15
Full
Jun 23
Last Quarter
Jul 1
New

Hourly Weather History & Observations

Time (CDT) Temp. Dew Point Humidity Pressure Visibility Wind Dir Wind Speed Gust Speed Precip Events Conditions
12:54 AM 64.0 °F 60.1 °F 87% 29.83 in 10.0 mi SSE 4.6 mph - N/A   Clear
1:54 AM 64.0 °F 60.1 °F 87% 29.82 in 9.0 mi SSE 3.5 mph - N/A   Clear
2:54 AM 63.0 °F 61.0 °F 93% 29.83 in 8.0 mi Calm Calm - N/A   Clear
3:54 AM 62.1 °F 60.1 °F 93% 29.83 in 7.0 mi Calm Calm - N/A   Clear
4:54 AM 61.0 °F 59.0 °F 93% 29.85 in 3.0 mi Calm Calm - N/A   Clear
5:04 AM 60.8 °F 60.8 °F 100% 29.86 in 2.5 mi North 3.5 mph - N/A   Clear
5:37 AM 64.4 °F 62.6 °F 94% 29.89 in 3.0 mi NNW 5.8 mph - N/A   Clear
5:54 AM 64.0 °F 62.1 °F 93% 29.90 in 4.0 mi NNW 5.8 mph - N/A   Clear
6:54 AM 71.1 °F 62.1 °F 73% 29.94 in 10.0 mi NW 11.5 mph - N/A   Clear
7:54 AM 73.9 °F 57.0 °F 55% 29.96 in 10.0 mi NW 12.7 mph - N/A   Clear
8:54 AM 75.9 °F 54.0 °F 46% 29.98 in 10.0 mi NW 8.1 mph - N/A   Clear
9:54 AM 78.1 °F 43.0 °F 29% 29.98 in 10.0 mi NNW 10.4 mph - N/A   Clear
10:54 AM 79.0 °F 39.9 °F 25% 29.99 in 10.0 mi WNW 11.5 mph - N/A   Clear
11:54 AM 80.1 °F 41.0 °F 25% 29.99 in 10.0 mi NNW 13.8 mph 24.2 mph N/A   Clear
12:54 PM 82.9 °F 36.0 °F 19% 29.99 in 10.0 mi NW 12.7 mph - N/A   Clear
1:54 PM 84.9 °F 35.1 °F 17% 30.00 in 10.0 mi WNW 12.7 mph 25.3 mph N/A   Clear
2:54 PM 86.0 °F 33.1 °F 15% 29.99 in 10.0 mi WNW 11.5 mph 25.3 mph N/A   Clear
3:54 PM 84.9 °F 32.0 °F 15% 29.99 in 10.0 mi WNW 11.5 mph 27.6 mph N/A   Clear
4:54 PM 84.9 °F 33.1 °F 16% 29.99 in 10.0 mi NW 13.8 mph 19.6 mph N/A   Clear
5:54 PM 84.0 °F 34.0 °F 17% 29.99 in 10.0 mi WNW 11.5 mph 18.4 mph N/A   Clear
6:54 PM 82.0 °F 37.9 °F 21% 29.99 in 10.0 mi West 10.4 mph 20.7 mph N/A   Clear
7:54 PM 78.1 °F 42.1 °F 28% 30.01 in 10.0 mi NNW 10.4 mph - N/A   Clear
8:54 PM 69.1 °F 44.1 °F 40% 30.04 in 10.0 mi North 5.8 mph - N/A   Clear
9:54 PM 63.0 °F 45.0 °F 52% 30.07 in 10.0 mi North 4.6 mph - N/A   Clear
10:54 PM 59.0 °F 46.9 °F 64% 30.07 in 10.0 mi NNW 5.8 mph - N/A   Clear
11:54 PM 57.9 °F 48.0 °F 70% 30.09 in 10.0 mi Calm Calm - N/A   Clear